Location: Launay
(47.2429°N, 1.5727°E)
Time: 18:59:35
(UTC+00:00)

Cosmos 44 - Pass Details

Date: 19 May 2025
Orbit: 588 x 763 km, 65.1° (Epoch: 23 June)

Event Time Altitude Azimuth Distance (km) Brightness Sun altitude
Rises 21:15:52 0° 321° (NW) 2,905 8.5 -14.4°
Reaches altitude 10° 21:18:06 10° 320° (NW) 2,018 7.1 -14.6°
Maximum altitude 21:22:39 76° 236° (WSW) 679 3.2 -15.0°
Enters shadow 21:25:21 25° 154° (SSE) 1,326 4.1 -15.3°
